Weather History for KLVS - March, 2013

Change the Weather History Date:

Tuesday, March 19, 2013

  Actual Average Record
Temperature  
Mean Temperature 40 °F -  
Max Temperature 51 °F 56 °F 75 °F (2004)
Min Temperature 30 °F 26 °F 4 °F (1965)
Degree Days  
Heating Degree Days 25    
Moisture  
Dew Point 3 °F    
Average Humidity 22    
Maximum Humidity 41    
Minimum Humidity 9    
Precipitation  
Precipitation 0.00 in - - ()
Sea Level Pressure  
Sea Level Pressure 29.94 in    
Wind  
Wind Speed 6 mph (SE)    
Max Wind Speed 16 mph    
Max Gust Speed 26 mph    
Visibility 10 miles    
Events      
Averages and records for this station are not official NWS values.
T = Trace of Precipitation, MM = Missing Value Source: NWS Daily Summary

Daily Weather History Graph

Daily Weather History Graph

Search for Another Location

Airport or City:

Trip Planner

Search our weather history database for the weather conditions in past years. The results will help you decide how hot, cold, wet, or windy it might be!

Date:

Astronomy

Mar. 19, 2013 Rise Set
Actual Time 7:05 AM MDT 7:11 PM MDT
Civil Twilight 6:39 AM MDT 7:37 PM MDT
Nautical Twilight 6:10 AM MDT 8:06 PM MDT
Astronomical Twilight 5:40 AM MDT 8:37 PM MDT
Moon 12:08 PM MDT (3/19) 1:49 AM MDT (3/19)
Length of Visible Light 12h 57m
Length of Day
12h 06m
Waxing Crescent, 50% of the Moon is Illuminated
Mar 19
Waxing Crescent
Mar 27
Full
Apr 2
Last Quarter
Apr 10
New
Apr 18
First Quarter

Hourly Weather History & Observations

Time (MDT) Temp. Windchill Dew Point Humidity Pressure Visibility Wind Dir Wind Speed Gust Speed Precip Events Conditions
12:53 AM 42.1 °F 39.2 °F -4.0 °F 14% 29.80 in 10.0 mi NNW 4.6 mph - N/A   Clear
1:53 AM 37.0 °F 31.0 °F -7.1 °F 15% 29.81 in 10.0 mi ENE 8.1 mph - N/A   Clear
2:53 AM 42.1 °F 37.1 °F -6.0 °F 13% 29.78 in 10.0 mi NE 8.1 mph - N/A   Clear
3:53 AM 44.1 °F 40.1 °F -9.0 °F 11% 29.76 in 10.0 mi North 6.9 mph - N/A   Clear
4:53 AM 45.0 °F - -11.0 °F 9% 29.76 in 10.0 mi Calm Calm - N/A   Clear
5:53 AM 34.0 °F 25.5 °F -8.0 °F 16% 29.83 in 10.0 mi SE 11.5 mph - N/A   Clear
6:53 AM 35.1 °F 27.9 °F -8.0 °F 16% 29.85 in 10.0 mi South 9.2 mph - N/A   Clear
7:53 AM 44.1 °F 41.5 °F -7.1 °F 12% 29.85 in 10.0 mi ENE 4.6 mph - N/A   Clear
8:53 AM 45.0 °F - -4.0 °F 13% 29.88 in 10.0 mi Calm Calm - N/A   Clear
9:53 AM 48.0 °F - -0.9 °F 13% 29.92 in 10.0 mi Calm Calm - N/A   Clear
10:53 AM 46.9 °F - -2.0 °F 13% 29.94 in 10.0 mi SSW 3.5 mph - N/A   Mostly Cloudy
11:53 AM 50.0 °F - -0.9 °F 12% 29.92 in 10.0 mi Calm Calm - N/A   Overcast
12:53 PM 50.0 °F - 10.0 °F 20% 29.93 in 10.0 mi WNW 12.7 mph 26.5 mph N/A   Overcast
1:53 PM 50.0 °F - 12.0 °F 22% 29.94 in 10.0 mi Variable 5.8 mph - N/A   Mostly Cloudy
2:53 PM 48.9 °F - 14.0 °F 25% 29.94 in 10.0 mi WNW 6.9 mph - N/A   Overcast
3:53 PM 48.0 °F - 16.0 °F 28% 29.96 in 10.0 mi WSW 11.5 mph 17.3 mph N/A   Overcast
4:53 PM 48.0 °F - 16.0 °F 28% 29.95 in 10.0 mi South 6.9 mph - N/A   Mostly Cloudy
5:53 PM 46.9 °F - 10.9 °F 23% 30.01 in 10.0 mi SSE 16.1 mph - N/A   Scattered Clouds
6:53 PM 42.1 °F 34.2 °F 9.0 °F 26% 30.06 in 10.0 mi SE 16.1 mph - N/A   Mostly Cloudy
7:53 PM 36.0 °F 27.5 °F 8.1 °F 31% 30.08 in 10.0 mi SE 12.7 mph - N/A   Clear
8:53 PM 30.9 °F 21.2 °F 8.1 °F 38% 30.14 in 10.0 mi SSE 12.7 mph - N/A   Clear
9:53 PM 30.0 °F 21.7 °F 8.1 °F 40% 30.16 in 10.0 mi SSE 9.2 mph - N/A   Clear
10:53 PM 32.0 °F - 10.0 °F 40% 30.18 in 10.0 mi Calm Calm - N/A   Clear
11:53 PM 30.0 °F - 9.0 °F 41% 30.19 in 10.0 mi Calm Calm - N/A   Clear